Regional Weather Roundup
Issued by NWS

Home | Current Version | Previous Version | Graphics & Text | Print | Product List | Glossary On
Versions: 1 2 3 4 5 6 7 8 9 10 11 12 13 14 15 16 17 18 19 20 21 22 23 24 25 26 27 28 29 30 31 32 33 34 35 36 37 38 39 40 41 42 43 44 45 46 47 48 49 50
000
ASUS45 KTFX 272004
RWRMT
MONTANA HOURLY WEATHER ROUNDUP
NATIONAL WEATHER SERVICE GREAT FALLS MT
104 PM MST TUE JAN 27 2015

NOTE: "FAIR" INDICATES FEW OR NO CLOUDS BELOW 12000 FEET WITH NO
SIGNIFICANT WEATHER AND/OR OBSTRUCTIONS TO VISIBILITY.

* THESE STATIONS ARE NOT UNDER NWS QUALITY CONTROL. THEY DO NOT
   REPORT WEATHER SUCH AS PRECIPITATION OR FOG.

MTZ001>007-043-272100-
WEST OF THE DIVIDE
CITY           SKY/WX    TMP DP  RH WIND       PRES   REMARKS
KALISPELL      PTSUNNY   32  28  85 CALM      29.97F
MISSOULA       CLOUDY    32  28  85 CALM      30.04F
BUTTE          PTSUNNY   43  28  56 N5        30.01F
MULLAN PASS    PTSUNNY   45  27  49 SW7       30.00F
* ANACONDA     PTSUNNY   50  28  43 N/A        N/A
* ESSEX        N/A       49  32  52 N/A        N/A
* LINCOLN      N/A       43  27  53 SE2        N/A
* LOOKOUT PASS N/A       48  33  56 S2         N/A
* POLSON       N/A       47  32  56 S1         N/A
* RONAN APT    CLOUDY    34  34 100 N/A        N/A
* SEELEY LAKE  N/A       37  28  70 S1         N/A
* THOMP F APT  CLOUDY    47  26  44 SE6G12     N/A
* YAAK HILL    N/A       32  29  89 SW1        N/A
$$

MTZ008-052>055-272100-
SOUTHWEST MONTANA
CITY           SKY/WX    TMP DP  RH WIND       PRES   REMARKS
BOZEMAN        PTSUNNY   41  30  65 CALM      30.00F
DILLON         PTSUNNY   54  27  35 S9        30.01F
* W YELLOWSTON PTCLDY    30  28  92 N2         N/A
* THREE FORKS  PTSUNNY   43  43 100 N/A        N/A
* BOULDER HILL N/A       47  25  42 SW9        N/A
* MONIDA PASS  N/A       38  27  65 SE17       N/A   WCI  29
* RAYNOLDS PAS N/A       37  20  50 SE22G28    N/A   WCI  26
* WHITEHALL    N/A       52  30  43 NE2G7      N/A
* WISE RIVER   N/A       36  28  73 NE1G6      N/A
$$

MTZ009>010-012-014-046-048-049-054-272100-
EAST SLOPES AND CENTRAL MONTANA
CITY           SKY/WX    TMP DP  RH WIND       PRES   REMARKS
CUT BANK       CLOUDY   N/A N/A N/A N/A       29.85F
GREAT FALLS    PTCLDY    63  27  26 SW20      29.88F
HELENA         PTCLDY    45  32  60 CALM      29.98F
MALMSTROM AFB  PTCLDY    64  27  25 SW16G25   29.88F
* DEARBORN     N/A       59  28  31 S10G15     N/A
* EAST GLACIER N/A       53  18  25 W11G17     N/A
* MONARCH      N/A       57  18  22 SW16       N/A
* PENDROY      N/A       55  24  30 W14        N/A
* ROGERS PASS  N/A       50  23  35 SE10G18    N/A
* SWEET GRASS  N/A       52  25  35 W22G28     N/A
$$

MTZ011-013-016-021-035-040-045-047-050-051-272100-
NORTH CENTRAL MONTANA
CITY           SKY/WX    TMP DP  RH WIND       PRES   REMARKS
HAVRE          PTSUNNY   57  34  42 SW21      29.82F
LEWISTOWN      CLOUDY    59  32  36 VRB3      29.90F
* CHESTER      N/A       46  32  58 SW5        N/A
* DENTON       N/A       58  34  41 NE2        N/A
* GEYSER       N/A       63  24  23 SW22G29    N/A
* JUDITH GAP   N/A       56  29  36 N2         N/A
* LOMA         N/A       61  36  39 SW16       N/A
$$

MTZ017>020-022>027-061-062-272100-
NORTHEAST MONTANA
CITY           SKY/WX    TMP DP  RH WIND       PRES   REMARKS
GLASGOW        PTSUNNY   50  34  54 W3        29.83F
GLENDIVE       PTSUNNY   50  37  61 SE10      29.86F
SIDNEY         CLOUDY    48  37  66 S8        29.85F
WOLF POINT     CLOUDY    48  37  66 W6        29.82F
* BEAVER HILL  N/A       51  34  52 S10        N/A
* CIRCLE       N/A       57  40  53 SW5        N/A
* LINDSAY DVD  N/A       61  31  32 SW12       N/A
* NAVAJO       N/A       48  35  61 W16G21     N/A
* SACO         N/A       50  38  64 VRB1       N/A
$$

MTZ028>042-056>058-272100-
SOUTHCENTRAL AND SOUTHEAST MONTANA
CITY           SKY/WX    TMP DP  RH WIND       PRES   REMARKS
BAKER          PTCLDY    59  36  42 W10       29.87F
BILLINGS       PTSUNNY   64  28  26 SW12      29.90F
LIVINGSTON     PTCLDY    64  25  23 SW24G32   29.93F
MILES CITY     PTCLDY    57  37  47 CALM      29.86F
* LAUREL APT   PTSUNNY   64  30  28 S13G18     N/A
* ROUNDUP APT  CLOUDY    61  25  25 S13G18     N/A
* ALZADA       N/A       65  37  36 SW2        N/A
* HYSHAM       N/A       59  26  28 W6G11      N/A
* REED POINT   N/A       50  30  46 E3         N/A
* ROSCOE HILL  N/A       61  13  15 S15G24     N/A
$$

REGIONAL REPORTS...DAKOTAS
CITY           SKY/WX    TMP DP  RH WIND       PRES   REMARKS
WILLISTON      PTSUNNY   52  36  55 S3        29.80F
DICKINSON      PTCLDY    61  37  41 W10       29.82F
CROSBY         SUNNY     45  37  74 SW12      29.79S
WATFORD CITY   SUNNY     50  39  66 SW8       29.79F
BISMARCK       PTCLDY    48  32  54 SW6       29.84F
GRAND FORKS    CLOUDY    30  28  92 S17       29.97F WCI  18
FARGO          CLOUDY    30  28  92 S17       30.01F WCI  18
BUFFALO SD     PTCLDY    66  30  26 W13       29.82F
$$

REGIONAL REPORTS...WYOMING/IDAHO/WASHINGTON
CITY           SKY/WX    TMP DP  RH WIND       PRES   REMARKS
GILLETTE       SUNNY     63  30  29 SW12G20   29.93F
SHERIDAN       SUNNY     54  34  47 N6        29.90F
CODY           PTCLDY    54  28  37 N5        29.98F
YELLOWSTONE LA PTSUNNY   28  18  66 CALM      30.19F
SALMON         CLOUDY   N/A N/A N/A CALM      30.13F VSB 3
MULLAN PASS    PTSUNNY   45  27  49 SW7       30.00S
SAND POINT     FOG      N/A N/A N/A CALM      30.02F VSB M1/4
SPOKANE        FOG       32  32 100 NE3       30.00F VSB M1/4

$$



USA.gov is the U.S. government's official web portal to all federal, state and local government web resources and services.